Weather Roundup
Issued by NWS

Home | Current Version | Previous Version | Graphics & Text | Print | Product List | Glossary Off
Versions: 1 2 3 4 5 6 7 8 9 10 11 12 13 14 15 16 17 18 19 20 21 22 23 24 25 26 27 28 29 30 31 32 33 34 35 36 37 38 39 40 41 42 43 44 45 46 47 48 49 50

000
NZUS93 KARX 282259
HRRWXR

CURRENT HOURLY OBSERVATIONS ACROSS
MUCH OF THE UPPER MISSISSIPPI VALLEY
NATIONAL WEATHER SERVICE LA CROSSE WI
600 PM CDT TUE JUL 28 2015


...SOUTHEAST MINNESOTA...


CITY           SKY/WX    TMP DP  RH WIND       PRES   REMARKS
ROCHESTER      CLOUDY    78  72  81 SW15      29.89S
ROCHESTER/MAYO CLOUDY    79  73  79 S6        29.88S
WINONA         MOSUNNY   86  70  58 SW7       29.86S HX  90
AUSTIN         PTSUNNY   81  72  74 SW10      29.88F
ALBERT LEA     PTSUNNY   79  72  78 SW7       29.88F
DODGE CENTER   CLOUDY    79  73  83 SW7       29.88F
PRESTON        CLOUDY    79  69  73 SW8       29.90F
OWATONNA       PTSUNNY   79  72  78 SW12      29.87S
FARIBAULT      CLOUDY    79  72  78 S8        29.85F
$$

...ELSEWHERE IN MINNESOTA...


CITY           SKY/WX    TMP DP  RH WIND       PRES   REMARKS
MINNEAPOLIS    CLOUDY    84  72  67 SW8       29.82R
INTNL FALLS    MOSUNNY   80  65  59 SW14G23   29.64F
DULUTH         PTSUNNY   81  67  62 S14       29.78S
RED WING       CLOUDY    84  72  65 SW7       29.82S
REDWOOD FALLS  SUNNY     81  60  48 W12       29.86R
MANKATO        CLOUDY    79  72  78 W14G20    29.85S
WORTHINGTON    SUNNY     79  61  53 W13G20    29.93R
FAIRMONT       CLOUDY    79  66  65 W10       29.88S
$$

...SOUTHWEST WISCONSIN...


CITY           SKY/WX    TMP DP  RH WIND       PRES   REMARKS
LA CROSSE      MOSUNNY   85  73  67 S8        29.86S HX  91
PRAIRIE DU CHI CLOUDY    80  68  66 S3        29.90R
BOSCOBEL       MOSUNNY   82  71  69 SW7       29.90S
LONE ROCK      NOT AVBL
PLATTEVILLE    SUNNY     81  74  80 SW6       29.93S
FORT MC COY    MOSUNNY   81  69  66 S6        29.90R
VIROQUA        FAIR      79  72  78 S6        29.92S
WIS DELLS      MOSUNNY   83  69  62 SW12      29.92R
$$

...ELSEWHERE IN WISCONSIN...


CITY           SKY/WX    TMP DP  RH WIND       PRES   REMARKS
MILWAUKEE      CLOUDY    82  67  60 S13       29.91F
MADISON        PTSUNNY   85  71  63 SW8       29.91R HX  90
GREEN BAY      CLOUDY    83  66  56 S10       29.91S
EAU CLAIRE     MOSUNNY   86  71  60 S12       29.83S HX  91
BLACK RVR FLS  MOCLDY    83  72  67 S6        29.87S
MEDFORD        SUNNY     79  70  73 S9G16     29.89F
WAUSAU         CLOUDY    84  68  58 S12       29.88S
WIS RAPIDS     PTSUNNY   84  69  60 S8        29.90F
MARSHFIELD     PTSUNNY   82  69  64 SW10      29.90S
RICE LAKE      CLOUDY    80  71  73 S6        29.85S
$$

...NORTHEAST IOWA...


CITY           SKY/WX    TMP DP  RH WIND       PRES   REMARKS
DECORAH        CLOUDY    79  72  78 VRB5G12   29.90S
MASON CITY     CLOUDY    76  73  91 SW9       29.89F
CHARLES CITY   CLOUDY    77  75  94 VRB5      29.89F
OELWEIN        CLOUDY    73  72  94 SE5       29.90F
$$

...ELSEWHERE IN IOWA...


CITY           SKY/WX    TMP DP  RH WIND       PRES   REMARKS
DES MOINES     TSTM      77  72  84 S14       29.87R
IOWA CITY      CLOUDY    77  72  84 MISG      29.90F
FORT DODGE     PTSUNNY   81  72  74 SW7       29.91R
$$

...NORTHERN ILLINOIS...


CITY           SKY/WX    TMP DP  RH WIND       PRES   REMARKS
CHICAGO-OHARE  PTSUNNY   88  69  53 S8        29.89R HX  92
CHICAGO-MIDWAY PTSUNNY   91  68  46 S12       29.89R HX  95
MOLINE         CLOUDY    85  77  77 MISG      29.89R HX  95
ROCKFORD       CLOUDY    85  74  69 SW9       29.93R HX  92
PEORIA         PTSUNNY   85  74  69 S7        29.90F HX  92
$$

NOTE: "FAIR" INDICATES FEW OR NO CLOUDS BELOW 12,000 FEET WITH NO
SIGNIFICANT WEATHER AND/OR OBSTRUCTIONS TO VISIBILITY. WIND
SPEEDS ARE IN MILES-PER-HOUR.



USA.gov is the U.S. government's official web portal to all federal, state and local government web resources and services.